Tracking 20621 objects as of 29-Mar-2020
HD Live streaming from Space Station
objects crossing your sky now

ELEKTRON 3

Track ELEKTRON 3 now!
10-day predictions
ELEKTRON 3 is classified as:


NORAD ID: 829
Int'l Code: 1964-038A
Perigee: 405.4 km
Apogee: 6,178.7 km
Inclination: 60.8 °
Period: 157.6 minutes
Semi major axis: 9663 km
RCS: 2.8255 m2 (large)
Launch date: July 10, 1964
Source: Commonwealth of Independent States (former USSR) (CIS)
Launch site: TYURATAM MISSILE AND SPACE COMPLEX (TTMTR)
aabbcc
Your satellite tracking list
Your tracking list is empty




NASA's NSSDC Master Catalog

Two Line Element Set (TLE):
1   829U 64038A   20088.70905085 +.00000029 +00000-0 +23758-4 0  9992
2   829 060.7979 082.2057 2987276 105.2760 289.3890 09.13969832807199
Source of the keplerian elements: AFSPC